VRD621 KABQ-KLAX

Flight info

Callsign VRD621
Flight time 1h 37m
Altitude 30000
Route RDRNR3 ZUN J6 DRK HIPPI GABBL HLYWD1
Aircraft B753/M-SDE2E3FGHIJ3J4J7RWXY/LB1

Departure

Time 2026-05-04 00:37
Airport Albuquerque International Sunport (KABQ)

Arrival

Time 2026-05-04 02:14
Airport Los Angeles International Airport (KLAX)
Time Latitude Longitude Altitude Speed Heading
2026-05-04 00:07 35.04682 -106.61591 5348 ft 0 kts 11°
2026-05-04 00:27 35.04675 -106.61592 5348 ft 2 kts 11°
2026-05-04 00:27 35.04660 -106.61591 5348 ft 2 kts 342°
2026-05-04 00:27 35.04647 -106.61584 5348 ft 2 kts 322°
2026-05-04 00:27 35.04637 -106.61571 5348 ft 2 kts 300°
2026-05-04 00:28 35.04632 -106.61554 5348 ft 2 kts 278°
2026-05-04 00:28 35.04632 -106.61545 5348 ft 1 kts 267°
2026-05-04 00:28 35.04632 -106.61541 5348 ft 0 kts 269°
2026-05-04 00:30 35.04632 -106.61547 5348 ft 1 kts 269°
2026-05-04 00:30 35.04630 -106.61565 5348 ft 2 kts 259°
2026-05-04 00:31 35.04625 -106.61591 5348 ft 3 kts 254°
2026-05-04 00:31 35.04617 -106.61618 5348 ft 3 kts 248°
2026-05-04 00:31 35.04607 -106.61646 5348 ft 3 kts 245°
2026-05-04 00:31 35.04596 -106.61674 5347 ft 4 kts 242°
2026-05-04 00:32 35.04567 -106.61737 5346 ft 11 kts 245°
2026-05-04 00:32 35.04556 -106.61827 5344 ft 10 kts 271°
2026-05-04 00:32 35.04558 -106.61912 5342 ft 9 kts 270°
2026-05-04 00:32 35.04557 -106.61989 5341 ft 8 kts 270°
2026-05-04 00:33 35.04558 -106.62063 5338 ft 9 kts 271°
2026-05-04 00:33 35.04536 -106.62131 5335 ft 0 kts 207°
2026-05-04 00:35 35.04532 -106.62133 5335 ft 1 kts 202°
2026-05-04 00:35 35.04508 -106.62140 5335 ft 6 kts 186°
2026-05-04 00:35 35.04450 -106.62133 5335 ft 8 kts 146°
2026-05-04 00:35 35.04436 -106.62096 5336 ft 3 kts 94°
2026-05-04 00:36 35.04433 -106.61938 5342 ft 44 kts 90°
2026-05-04 00:36 35.04430 -106.61306 5349 ft 104 kts 90°
2026-05-04 00:36 35.04420 -106.60174 5358 ft 160 kts 90°
2026-05-04 00:36 35.04407 -106.58614 5416 ft 204 kts 92°
2026-05-04 00:37 35.04416 -106.56801 5869 ft 223 kts 91°
2026-05-04 00:37 35.04406 -106.54987 6861 ft 213 kts 90°
2026-05-04 00:37 35.04756 -106.53127 7019 ft 243 kts 63°
2026-05-04 00:37 35.05903 -106.51463 7050 ft 275 kts 34°
2026-05-04 00:38 35.07697 -106.50530 7435 ft 292 kts
2026-05-04 00:38 35.09776 -106.50650 7925 ft 301 kts 341°
2026-05-04 00:38 35.11579 -106.51791 8725 ft 297 kts 317°
2026-05-04 00:38 35.12846 -106.53780 9303 ft 299 kts 291°
2026-05-04 00:39 35.13371 -106.56205 10008 ft 297 kts 271°
2026-05-04 00:39 35.13190 -106.58705 10489 ft 305 kts 253°
2026-05-04 00:39 35.12331 -106.61171 10596 ft 325 kts 239°
2026-05-04 00:39 35.11174 -106.63631 10727 ft 344 kts 243°
2026-05-04 00:40 35.10282 -106.66443 10791 ft 365 kts 255°
2026-05-04 00:40 35.09800 -106.69558 10888 ft 382 kts 262°
2026-05-04 00:40 35.09539 -106.72784 11462 ft 382 kts 264°
2026-05-04 00:40 35.09436 -106.75990 11954 ft 385 kts 273°
2026-05-04 00:41 35.09796 -106.79240 12475 ft 387 kts 278°
2026-05-04 00:41 35.10222 -106.82480 13029 ft 388 kts 279°
2026-05-04 00:41 35.10679 -106.85741 13577 ft 390 kts 279°
2026-05-04 00:41 35.10990 -106.88989 14177 ft 389 kts 269°
2026-05-04 00:42 35.10702 -106.92278 14823 ft 389 kts 258°
2026-05-04 00:42 35.10057 -106.95469 15526 ft 389 kts 257°
2026-05-04 00:42 35.09420 -106.98645 16228 ft 388 kts 257°
2026-05-04 00:42 35.08774 -107.01845 16836 ft 390 kts 257°
2026-05-04 00:43 35.08120 -107.05077 17434 ft 392 kts 257°
2026-05-04 00:43 35.07479 -107.08273 18026 ft 394 kts 257°
2026-05-04 00:43 35.06821 -107.11536 18626 ft 396 kts 257°
2026-05-04 00:43 35.06161 -107.14811 19218 ft 398 kts 257°
2026-05-04 00:44 35.05499 -107.18088 19802 ft 400 kts 257°
2026-05-04 00:44 35.04839 -107.21348 20365 ft 402 kts 257°
2026-05-04 00:44 35.04168 -107.24670 20918 ft 403 kts 258°
2026-05-04 00:44 35.03759 -107.28059 21437 ft 404 kts 268°
2026-05-04 00:45 35.03643 -107.31447 21968 ft 405 kts 268°
2026-05-04 00:45 35.03522 -107.34886 22491 ft 406 kts 269°
2026-05-04 00:45 35.03406 -107.38335 22978 ft 409 kts 269°
2026-05-04 00:45 35.03294 -107.41766 23466 ft 410 kts 269°
2026-05-04 00:46 35.03180 -107.45254 23947 ft 412 kts 269°
2026-05-04 00:46 35.03067 -107.48740 24419 ft 414 kts 269°
2026-05-04 00:46 35.02953 -107.52254 24912 ft 415 kts 269°
2026-05-04 00:46 35.02838 -107.55768 25381 ft 416 kts 269°
2026-05-04 00:47 35.02722 -107.59279 25849 ft 418 kts 269°
2026-05-04 00:47 35.02606 -107.62808 26316 ft 419 kts 269°
2026-05-04 00:47 35.02491 -107.66333 26817 ft 419 kts 268°
2026-05-04 00:47 35.02374 -107.69876 27300 ft 419 kts 268°
2026-05-04 00:48 35.02245 -107.73441 27796 ft 420 kts 268°
2026-05-04 00:48 35.02128 -107.76997 28277 ft 420 kts 268°
2026-05-04 00:48 35.02005 -107.80537 28760 ft 421 kts 268°
2026-05-04 00:48 35.01880 -107.84104 29277 ft 420 kts 268°
2026-05-04 00:49 35.01755 -107.87629 29925 ft 416 kts 268°
2026-05-04 00:49 35.01628 -107.91135 30259 ft 415 kts 268°
2026-05-04 00:49 35.01504 -107.94665 30290 ft 413 kts 268°
2026-05-04 00:50 35.01263 -108.01495 30326 ft 396 kts 268°
2026-05-04 00:50 35.01017 -108.08102 30219 ft 392 kts 268°
2026-05-04 00:51 35.00765 -108.14786 30206 ft 399 kts 268°
2026-05-04 00:51 35.00519 -108.21520 30203 ft 398 kts 268°
2026-05-04 00:52 35.00252 -108.28274 30182 ft 398 kts 268°
2026-05-04 00:52 34.99984 -108.34991 30171 ft 398 kts 268°
2026-05-04 00:53 34.99723 -108.41736 30156 ft 398 kts 268°
2026-05-04 00:53 34.99447 -108.48442 30151 ft 398 kts 268°
2026-05-04 00:54 34.99175 -108.55194 30138 ft 399 kts 268°
2026-05-04 00:54 34.98902 -108.61942 30122 ft 399 kts 268°
2026-05-04 00:55 34.98626 -108.68681 30116 ft 399 kts 267°
2026-05-04 00:55 34.98339 -108.75428 30095 ft 399 kts 267°
2026-05-04 00:56 34.98044 -108.82204 30090 ft 399 kts 267°
2026-05-04 00:56 34.97760 -108.88902 30079 ft 399 kts 267°
2026-05-04 00:57 34.97466 -108.95698 30076 ft 399 kts 267°
2026-05-04 00:57 34.97160 -109.02418 30071 ft 401 kts 267°
2026-05-04 00:58 34.96859 -109.09262 30073 ft 405 kts 267°
2026-05-04 00:58 34.96538 -109.16066 30075 ft 403 kts 266°
2026-05-04 00:59 34.96090 -109.22892 30071 ft 404 kts 266°
2026-05-04 00:59 34.95636 -109.29676 30066 ft 404 kts 266°
2026-05-04 01:00 34.95177 -109.36517 30050 ft 404 kts 266°
2026-05-04 01:00 34.94715 -109.43321 30046 ft 404 kts 266°
2026-05-04 01:01 34.94257 -109.50108 30044 ft 405 kts 266°
2026-05-04 01:01 34.93799 -109.56924 30040 ft 405 kts 266°
2026-05-04 01:02 34.93324 -109.63747 30039 ft 405 kts 266°
2026-05-04 01:02 34.92845 -109.70608 30043 ft 405 kts 265°
2026-05-04 01:03 34.92365 -109.77425 30022 ft 405 kts 265°
2026-05-04 01:03 34.91875 -109.84239 30019 ft 405 kts 265°
2026-05-04 01:04 34.91392 -109.91073 30013 ft 405 kts 265°
2026-05-04 01:04 34.90917 -109.97871 30009 ft 405 kts 265°
2026-05-04 01:05 34.90414 -110.04701 30000 ft 405 kts 265°
2026-05-04 01:05 34.89919 -110.11543 29999 ft 405 kts 265°
2026-05-04 01:06 34.89414 -110.18400 30009 ft 405 kts 265°
2026-05-04 01:06 34.88907 -110.25235 30004 ft 405 kts 265°
2026-05-04 01:07 34.88398 -110.32080 29997 ft 405 kts 265°
2026-05-04 01:07 34.87888 -110.38842 29999 ft 405 kts 265°
2026-05-04 01:08 34.87367 -110.45684 30018 ft 405 kts 265°
2026-05-04 01:08 34.86848 -110.52481 30041 ft 405 kts 265°
2026-05-04 01:09 34.86331 -110.59253 30052 ft 404 kts 265°
2026-05-04 01:09 34.85798 -110.66073 30059 ft 404 kts 265°
2026-05-04 01:10 34.85264 -110.72871 30063 ft 404 kts 265°
2026-05-04 01:10 34.84732 -110.79658 30067 ft 404 kts 265°
2026-05-04 01:11 34.84199 -110.86315 30080 ft 404 kts 265°
2026-05-04 01:11 34.83658 -110.93110 30096 ft 404 kts 264°
2026-05-04 01:12 34.83115 -110.99916 30108 ft 404 kts 264°
2026-05-04 01:12 34.82559 -111.06727 30133 ft 403 kts 265°
2026-05-04 01:13 34.82009 -111.13474 30157 ft 403 kts 264°
2026-05-04 01:13 34.81466 -111.20272 30183 ft 402 kts 264°
2026-05-04 01:14 34.80900 -111.27026 30175 ft 402 kts 264°
2026-05-04 01:14 34.80338 -111.33755 30133 ft 401 kts 264°
2026-05-04 01:15 34.79778 -111.40522 30081 ft 402 kts 264°
2026-05-04 01:15 34.79200 -111.47284 30038 ft 402 kts 264°
2026-05-04 01:16 34.78634 -111.54005 30069 ft 402 kts 264°
2026-05-04 01:16 34.78045 -111.60804 30118 ft 404 kts 264°
2026-05-04 01:17 34.77469 -111.67554 30058 ft 401 kts 264°
2026-05-04 01:17 34.76885 -111.74302 29992 ft 402 kts 264°
2026-05-04 01:18 34.76286 -111.81067 29953 ft 402 kts 264°
2026-05-04 01:18 34.75693 -111.87862 29918 ft 402 kts 264°
2026-05-04 01:19 34.75087 -111.94633 29878 ft 403 kts 264°
2026-05-04 01:19 34.74492 -112.01445 29851 ft 403 kts 264°
2026-05-04 01:20 34.73887 -112.08194 29887 ft 402 kts 264°
2026-05-04 01:20 34.73276 -112.14972 29953 ft 403 kts 264°
2026-05-04 01:21 34.72663 -112.21785 30025 ft 403 kts 264°
2026-05-04 01:21 34.72049 -112.28538 30084 ft 403 kts 264°
2026-05-04 01:22 34.71428 -112.35305 30087 ft 402 kts 264°
2026-05-04 01:22 34.70807 -112.42039 30063 ft 402 kts 264°
2026-05-04 01:23 34.70169 -112.48814 30026 ft 402 kts 262°
2026-05-04 01:23 34.69380 -112.55531 30005 ft 402 kts 262°
2026-05-04 01:24 34.68594 -112.62233 29993 ft 402 kts 262°
2026-05-04 01:24 34.67813 -112.68943 30003 ft 402 kts 262°
2026-05-04 01:25 34.67009 -112.75683 29996 ft 402 kts 262°
2026-05-04 01:25 34.66211 -112.82433 29986 ft 402 kts 262°
2026-05-04 01:26 34.65405 -112.89167 29971 ft 402 kts 262°
2026-05-04 01:26 34.64601 -112.95866 29951 ft 402 kts 262°
2026-05-04 01:27 34.63794 -113.02557 29926 ft 402 kts 262°
2026-05-04 01:27 34.62977 -113.09314 29884 ft 402 kts 261°
2026-05-04 01:28 34.62156 -113.16064 29848 ft 402 kts 261°
2026-05-04 01:28 34.61333 -113.22805 29814 ft 402 kts 261°
2026-05-04 01:29 34.60507 -113.29533 29789 ft 403 kts 261°
2026-05-04 01:29 34.59672 -113.36297 29771 ft 403 kts 261°
2026-05-04 01:30 34.58839 -113.43023 29748 ft 403 kts 261°
2026-05-04 01:30 34.58006 -113.49715 29772 ft 403 kts 261°
2026-05-04 01:31 34.57163 -113.56457 29806 ft 403 kts 261°
2026-05-04 01:31 34.56320 -113.63167 29813 ft 404 kts 261°
2026-05-04 01:32 34.55564 -113.69910 29819 ft 404 kts 262°
2026-05-04 01:32 34.54819 -113.76646 29796 ft 404 kts 262°
2026-05-04 01:33 34.54070 -113.83376 29846 ft 404 kts 261°
2026-05-04 01:33 34.53313 -113.90140 29840 ft 405 kts 261°
2026-05-04 01:34 34.52552 -113.96905 29755 ft 403 kts 261°
2026-05-04 01:34 34.51793 -114.03617 29763 ft 403 kts 261°
2026-05-04 01:35 34.50552 -114.10263 29808 ft 405 kts 256°
2026-05-04 01:35 34.49173 -114.16869 29826 ft 404 kts 256°
2026-05-04 01:36 34.47783 -114.23468 29812 ft 404 kts 256°
2026-05-04 01:36 34.46390 -114.30037 29795 ft 404 kts 256°
2026-05-04 01:37 34.44980 -114.36667 29781 ft 404 kts 256°
2026-05-04 01:37 34.43576 -114.43238 29773 ft 404 kts 256°
2026-05-04 01:38 34.42166 -114.49829 29770 ft 403 kts 256°
2026-05-04 01:38 34.40761 -114.56370 29772 ft 403 kts 256°
2026-05-04 01:39 34.39343 -114.62957 29777 ft 403 kts 256°
2026-05-04 01:39 34.37925 -114.69521 29802 ft 403 kts 255°
2026-05-04 01:40 34.36504 -114.76084 29811 ft 402 kts 255°
2026-05-04 01:40 34.35089 -114.82597 29805 ft 402 kts 255°
2026-05-04 01:41 34.33666 -114.89130 29791 ft 401 kts 255°
2026-05-04 01:41 34.32246 -114.95631 29778 ft 400 kts 255°
2026-05-04 01:42 34.30822 -115.02123 29767 ft 400 kts 255°
2026-05-04 01:42 34.29401 -115.08585 29768 ft 399 kts 255°
2026-05-04 01:43 34.27961 -115.15117 29768 ft 399 kts 255°
2026-05-04 01:43 34.26534 -115.21568 29767 ft 399 kts 255°
2026-05-04 01:44 34.25156 -115.28037 29766 ft 399 kts 256°
2026-05-04 01:44 34.23775 -115.34521 29783 ft 398 kts 256°
2026-05-04 01:45 34.22390 -115.41002 29802 ft 398 kts 256°
2026-05-04 01:45 34.20311 -115.50699 29797 ft 397 kts 255°
2026-05-04 01:46 34.18922 -115.57153 29789 ft 397 kts 255°
2026-05-04 01:46 34.17533 -115.63583 29799 ft 397 kts 255°
2026-05-04 01:47 34.16300 -115.70058 29836 ft 398 kts 261°
2026-05-04 01:47 34.15654 -115.76701 29853 ft 398 kts 261°
2026-05-04 01:48 34.15004 -115.83328 29869 ft 398 kts 261°
2026-05-04 01:48 34.14357 -115.89950 29887 ft 398 kts 262°
2026-05-04 01:49 34.13710 -115.96553 29908 ft 398 kts 262°
2026-05-04 01:49 34.13055 -116.03229 29587 ft 401 kts 262°
2026-05-04 01:50 34.12741 -116.06451 29322 ft 375 kts 262°
2026-05-04 01:50 34.12443 -116.09495 28950 ft 368 kts 262°
2026-05-04 01:50 34.12130 -116.12651 28566 ft 383 kts 262°
2026-05-04 01:50 34.11817 -116.15824 28118 ft 381 kts 262°
2026-05-04 01:51 34.11508 -116.18955 27639 ft 372 kts 262°
2026-05-04 01:51 34.11205 -116.22015 27128 ft 362 kts 261°
2026-05-04 01:51 34.10909 -116.24991 26661 ft 357 kts 261°
2026-05-04 01:51 34.10609 -116.27992 26292 ft 359 kts 261°
2026-05-04 01:52 34.10305 -116.30974 26029 ft 364 kts 261°
2026-05-04 01:52 34.09977 -116.34040 25640 ft 369 kts 261°
2026-05-04 01:52 34.09653 -116.37087 25243 ft 365 kts 261°
2026-05-04 01:52 34.09331 -116.40100 24879 ft 358 kts 261°
2026-05-04 01:53 34.09011 -116.43087 24567 ft 355 kts 261°
2026-05-04 01:53 34.08696 -116.46024 24254 ft 359 kts 261°
2026-05-04 01:53 34.08369 -116.49058 23824 ft 364 kts 261°
2026-05-04 01:53 34.08042 -116.52083 23280 ft 365 kts 261°
2026-05-04 01:54 34.07719 -116.55080 22954 ft 357 kts 261°
2026-05-04 01:54 34.07406 -116.57988 22620 ft 347 kts 261°
2026-05-04 01:54 34.07119 -116.60898 22423 ft 352 kts 261°
2026-05-04 01:54 34.06844 -116.63871 22009 ft 367 kts 261°
2026-05-04 01:55 34.06562 -116.66927 21479 ft 364 kts 261°
2026-05-04 01:55 34.06285 -116.69934 20885 ft 352 kts 261°
2026-05-04 01:55 34.06017 -116.72816 20496 ft 338 kts 260°
2026-05-04 01:55 34.05743 -116.75627 20230 ft 341 kts 261°
2026-05-04 01:56 34.05476 -116.78474 20089 ft 347 kts 261°
2026-05-04 01:56 34.05206 -116.81384 20083 ft 348 kts 261°
2026-05-04 01:56 34.04930 -116.84335 19704 ft 356 kts 261°
2026-05-04 01:56 34.04656 -116.87226 19569 ft 343 kts 261°
2026-05-04 01:57 34.04353 -116.90051 19519 ft 341 kts 258°
2026-05-04 01:57 34.03974 -116.92937 18990 ft 358 kts 259°
2026-05-04 01:57 34.03597 -116.95888 18333 ft 356 kts 259°
2026-05-04 01:57 34.03226 -116.98767 17864 ft 335 kts 258°
2026-05-04 01:58 34.02873 -117.01485 17537 ft 323 kts 258°
2026-05-04 01:58 34.02528 -117.04200 17436 ft 337 kts 259°
2026-05-04 01:58 34.02185 -117.07081 16901 ft 349 kts 259°
2026-05-04 01:58 34.01850 -117.09951 16305 ft 342 kts 259°
2026-05-04 01:59 34.01523 -117.12702 15905 ft 328 kts 259°
2026-05-04 01:59 34.01199 -117.15424 15773 ft 326 kts 259°
2026-05-04 01:59 34.00868 -117.18188 15440 ft 345 kts 259°
2026-05-04 01:59 34.00529 -117.21066 15005 ft 339 kts 259°
2026-05-04 02:00 34.00209 -117.23804 14950 ft 326 kts 259°
2026-05-04 02:00 33.99874 -117.26592 14359 ft 346 kts 259°
2026-05-04 02:00 33.99535 -117.29398 13947 ft 334 kts 259°
2026-05-04 02:00 33.99215 -117.32114 13854 ft 324 kts 259°
2026-05-04 02:01 33.98885 -117.34860 13290 ft 342 kts 259°
2026-05-04 02:01 33.98541 -117.37710 12665 ft 337 kts 259°
2026-05-04 02:01 33.98199 -117.40485 11939 ft 340 kts 259°
2026-05-04 02:01 33.97874 -117.43227 11871 ft 319 kts 259°
2026-05-04 02:02 33.97586 -117.45804 11941 ft 307 kts 259°
2026-05-04 02:02 33.97364 -117.48270 11930 ft 290 kts 268°
2026-05-04 02:02 33.97628 -117.50633 11838 ft 287 kts 277°
2026-05-04 02:02 33.98048 -117.53178 11416 ft 330 kts 277°
2026-05-04 02:03 33.98539 -117.56067 10939 ft 370 kts 278°
2026-05-04 02:03 33.99072 -117.59096 10738 ft 366 kts 278°
2026-05-04 02:03 33.99591 -117.62023 10630 ft 346 kts 278°
2026-05-04 02:03 34.00073 -117.64750 10378 ft 325 kts 278°
2026-05-04 02:04 34.00502 -117.67342 10145 ft 303 kts 272°
2026-05-04 02:04 34.00476 -117.69771 9987 ft 278 kts 260°
2026-05-04 02:04 34.00275 -117.72024 9972 ft 269 kts 260°
2026-05-04 02:04 34.00051 -117.74309 9995 ft 284 kts 261°
2026-05-04 02:05 33.99831 -117.76703 9986 ft 286 kts 261°
2026-05-04 02:05 33.99611 -117.79089 9907 ft 288 kts 261°
2026-05-04 02:05 33.99387 -117.81480 9553 ft 289 kts 261°
2026-05-04 02:05 33.99164 -117.83854 9221 ft 283 kts 261°
2026-05-04 02:06 33.98943 -117.86189 8862 ft 282 kts 261°
2026-05-04 02:06 33.98720 -117.88526 8479 ft 279 kts 261°
2026-05-04 02:06 33.98497 -117.90830 8099 ft 277 kts 262°
2026-05-04 02:06 33.98273 -117.93140 7717 ft 277 kts 262°
2026-05-04 02:07 33.98049 -117.95435 7332 ft 277 kts 262°
2026-05-04 02:07 33.97825 -117.97724 6945 ft 277 kts 262°
2026-05-04 02:07 33.97597 -118.00045 6563 ft 277 kts 262°
2026-05-04 02:07 33.97373 -118.02314 6119 ft 271 kts 262°
2026-05-04 02:08 33.97155 -118.04520 5724 ft 259 kts 262°
2026-05-04 02:08 33.96949 -118.06601 5370 ft 247 kts 262°
2026-05-04 02:08 33.96745 -118.08610 5022 ft 237 kts 262°
2026-05-04 02:08 33.96552 -118.10576 4769 ft 234 kts 262°
2026-05-04 02:09 33.96362 -118.12487 4437 ft 233 kts 262°
2026-05-04 02:09 33.96172 -118.14381 4095 ft 222 kts 262°
2026-05-04 02:09 33.95992 -118.16169 3771 ft 211 kts 261°
2026-05-04 02:09 33.95810 -118.17969 3479 ft 218 kts 262°
2026-05-04 02:10 33.95633 -118.19721 3168 ft 207 kts 262°
2026-05-04 02:10 33.95469 -118.21365 2916 ft 191 kts 262°
2026-05-04 02:10 33.95313 -118.22900 2651 ft 179 kts 262°
2026-05-04 02:10 33.95160 -118.24387 2463 ft 182 kts 262°
2026-05-04 02:11 33.95006 -118.25904 2201 ft 184 kts 262°
2026-05-04 02:11 33.94852 -118.27415 1933 ft 180 kts 262°
2026-05-04 02:11 33.94707 -118.28852 1641 ft 164 kts 262°
2026-05-04 02:11 33.94583 -118.30167 1353 ft 152 kts 262°
2026-05-04 02:12 33.94459 -118.31395 1058 ft 148 kts 262°
2026-05-04 02:12 33.94328 -118.32619 924 ft 144 kts 262°
2026-05-04 02:12 33.94197 -118.33802 794 ft 141 kts 263°
2026-05-04 02:12 33.94082 -118.34961 636 ft 137 kts 264°
2026-05-04 02:13 33.93964 -118.36114 479 ft 136 kts 264°
2026-05-04 02:13 33.93850 -118.37236 316 ft 133 kts 263°
2026-05-04 02:13 33.93738 -118.38335 147 ft 129 kts 264°
2026-05-04 02:13 33.93634 -118.39315 109 ft 92 kts 263°
2026-05-04 02:14 33.93572 -118.39914 117 ft 61 kts 263°
2026-05-04 02:14 33.93538 -118.40294 122 ft 38 kts 266°
2026-05-04 02:14 33.93559 -118.40525 125 ft 19 kts 288°
2026-05-04 02:14 33.93588 -118.40618 127 ft 0 kts 290°
2026-05-04 02:15 33.93589 -118.40620 127 ft 0 kts 290°
2026-05-04 02:15 33.93590 -118.40624 127 ft 1 kts 290°
2026-05-04 02:15 33.93595 -118.40649 127 ft 4 kts 281°
2026-05-04 02:15 33.93601 -118.40688 127 ft 4 kts 273°
2026-05-04 02:16 33.93597 -118.40750 127 ft 11 kts 265°
2026-05-04 02:16 33.93618 -118.40861 128 ft 14 kts 308°
2026-05-04 02:16 33.93707 -118.40905 128 ft 13 kts 351°
2026-05-04 02:16 33.93796 -118.40918 128 ft 10 kts 353°
2026-05-04 02:17 33.93857 -118.40910 128 ft 7 kts 43°
2026-05-04 02:17 33.93873 -118.40855 128 ft 7 kts 82°
2026-05-04 02:17 33.93898 -118.40813 128 ft 5 kts 16°
2026-05-04 02:17 33.93938 -118.40812 128 ft 5 kts 357°
2026-05-04 02:18 33.93977 -118.40813 128 ft 4 kts 10°
2026-05-04 02:18 33.94001 -118.40788 127 ft 5 kts 63°
2026-05-04 02:18 33.94012 -118.40756 126 ft 3 kts 71°
2026-05-04 02:18 33.94013 -118.40753 126 ft 0 kts 71°